Hourly Data Report for December 19, 2002

TORONTO CITY
ONTARIO

43°40'00.000" N
79°24'00.000" W
112.50 m
6158355
71508
XTO

Download Data

Hourly Data (December 2002)
Hourly Data Report for December 19, 2002
TIME
LST
Temp Definition
°C
Dew Point Definition
°C
Rel Hum Definition
%
Precip. Amount Definition
mm

Wind Dir Definition
10's deg

Wind Spd Definition
km/h
Visibility Definition
km
Stn Press Definition
kPa
Hmdx Definition


Wind Chill Definition


Weather Definition


00:00 4.0 0.9 80   LegendMM LegendMM LegendMM 100.32     LegendNANA
01:00 3.9 0.8 80   LegendMM LegendMM LegendMM 100.29     LegendNANA
02:00 3.8 0.2 77   LegendMM LegendMM LegendMM 100.19     LegendNANA
03:00 3.9 0.4 78   LegendMM LegendMM LegendMM 100.20     LegendNANA
04:00 3.9 0.4 78   LegendMM LegendMM LegendMM 100.11     LegendNANA
05:00 3.9 0.4 78   LegendMM LegendMM LegendMM 100.05     LegendNANA
06:00 4.1 0.6 78   LegendMM LegendMM LegendMM 99.95     LegendNANA
07:00 4.1 1.0 80   LegendMM LegendMM LegendMM 99.92     LegendNANA
08:00 4.6 1.3 79   LegendMM LegendMM LegendMM 99.85     LegendNANA
09:00 4.2 2.4 88   LegendMM LegendMM LegendMM 99.85     LegendNANA
10:00 5.8 2.8 81   LegendMM LegendMM LegendMM 99.75     LegendNANA
11:00 6.6 2.7 76   LegendMM LegendMM LegendMM 99.77     LegendNANA
12:00 7.1 3.4 77   LegendMM LegendMM LegendMM 99.56     LegendNANA
13:00 8.1 3.8 74   LegendMM LegendMM LegendMM 99.53     LegendNANA
14:00 8.1 4.1 76   LegendMM LegendMM LegendMM 99.43     LegendNANA
15:00 7.6 4.0 78   LegendMM LegendMM LegendMM 99.45     LegendNANA
16:00 7.2 3.8 79   LegendMM LegendMM LegendMM 99.33     LegendNANA
17:00 7.3 4.1 80   LegendMM LegendMM LegendMM 99.33     LegendNANA
18:00 7.6 4.2 79   LegendMM LegendMM LegendMM 99.16     LegendNANA
19:00 7.5 5.0 84   LegendMM LegendMM LegendMM 99.08     LegendNANA
20:00 7.5 5.3 86   LegendMM LegendMM LegendMM 99.00     LegendNANA
21:00 7.6 5.6 87   LegendMM LegendMM LegendMM 98.88     LegendNANA
22:00 7.5 5.7 88   LegendMM LegendMM LegendMM 98.67     LegendNANA
23:00 7.1 5.7 91   LegendMM LegendMM LegendMM 98.51     LegendNANA

Notes on Data Quality.

Legend

  • E = Estimated
  • M = Missing
  • NA = Not Available*
  • [empty] = Indicates an unobserved value
Date modified: